GW2129 Weather Reports


Display with metric or nautical units.
time (UTC)temp
F
wind
direction
speed
MPH
gust
MPH
rain 1hr
in
rain 24hr
in
rain mn
in
humidity
%
barometer
mb
20260505085812 68 304 0.0 3.0 0.00 0.00 0.00 95 1008.6
20260505085310 68 16 2.0 3.0 0.00 0.00 0.00 94 1008.6
20260505084808 68 192 1.0 6.0 0.00 0.00 0.00 94 1008.9
20260505084307 68 330 2.0 3.0 0.00 0.00 0.00 94 1008.7
20260505083803 68 149 2.0 4.0 0.00 0.00 0.00 94 1008.9
20260505083300 69 287 3.0 5.0 0.00 0.00 0.00 94 1008.8
20260505082756 69 63 2.0 3.0 0.00 0.00 0.00 94 1008.8
20260505082253 69 168 2.0 3.0 0.00 0.00 0.00 94 1009.0
20260505081749 69 35 2.0 3.0 0.00 0.00 0.00 94 1009.0
20260505081246 69 322 3.0 3.0 0.00 0.00 0.00 94 1009.1
20260505080743 69 259 3.0 5.0 0.00 0.00 0.00 94 1009.1
20260505080239 69 89 0.0 3.0 0.00 0.00 0.00 94 1009.1
20260505075735 69 0 0.0 4.0 0.00 0.00 0.00 94 1009.1
20260505075232 69 117 1.0 3.0 0.00 0.00 0.00 94 1009.3
20260505074729 69 81 2.0 4.0 0.00 0.00 0.00 93 1009.2
20260505074227 69 65 0.0 3.0 0.00 0.00 0.00 93 1009.3
20260505073724 69 255 2.0 5.0 0.00 0.00 0.00 93 1009.3
20260505073222 69 357 0.0 5.0 0.00 0.00 0.00 93 1009.3
20260505072718 69 327 3.0 4.0 0.00 0.00 0.00 93 1009.7
20260505072214 69 73 0.0 6.0 0.00 0.00 0.00 93 1009.5
20260505071709 69 92 1.0 4.0 0.00 0.00 0.00 92 1009.6
20260505071207 69 251 2.0 5.0 0.00 0.00 0.00 92 1009.7
20260505070705 69 207 2.0 4.0 0.00 0.00 0.00 92 1009.7
20260505070200 69 0 1.0 3.0 0.00 0.00 0.00 92 1009.8
20260505065656 69 151 0.0 3.0 0.00 0.00 0.00 92 1009.8
20260505065154 69 158 4.0 4.0 0.00 0.00 0.00 92 1010.0
20260505064650 69 228 3.0 3.0 0.00 0.00 0.00 92 1010.3
20260505064149 69 323 2.0 2.0 0.00 0.00 0.00 92 1010.4
20260505063646 69 147 1.0 2.0 0.00 0.00 0.00 92 1010.3
20260505063142 69 195 0.0 3.0 0.00 0.00 0.00 91 1010.1
20260505062638 69 244 2.0 3.0 0.00 0.00 0.00 91 1010.1
20260505062136 69 48 1.0 4.0 0.00 0.00 0.00 91 1010.6
20260505061632 69 49 1.0 5.0 0.00 0.00 0.00 91 1010.5
20260505061131 69 306 3.0 4.0 0.00 0.00 0.00 91 1010.3
20260505060628 69 155 3.0 3.0 0.00 0.00 0.00 90 1010.6
20260505060125 69 142 2.0 6.0 0.00 0.00 0.00 90 1010.5
20260505055620 70 312 3.0 4.0 0.00 0.00 0.00 90 1010.1
20260505055117 70 83 1.0 5.0 0.00 0.00 0.00 90 1010.5
20260505054614 70 29 1.0 4.0 0.00 0.00 0.00 89 1010.3
20260505054112 70 41 2.0 5.0 0.00 0.00 0.00 89 1010.4
20260505053609 70 281 2.0 4.0 0.00 0.00 0.00 89 1010.6
20260505053105 70 113 3.0 5.0 0.00 0.00 0.00 88 1010.5
20260505052603 70 344 1.0 6.0 0.00 0.00 0.00 88 1010.6
20260505052100 70 3 0.0 4.0 0.00 0.00 0.00 88 1010.4
20260505051557 71 47 2.0 4.0 0.00 0.00 0.00 88 1010.3
20260505051055 70 212 2.0 3.0 0.00 0.00 0.00 88 1010.3
20260505050552 70 181 2.0 6.0 0.00 0.00 0.00 88 1010.3
20260505041520 71 146 2.0 7.0 0.00 0.00 0.00 87 1010.5
20260505041018 71 85 2.0 4.0 0.00 0.00 0.00 87 1010.5
20260505040515 71 114 2.0 4.0 0.00 0.00 0.00 86 1010.3
20260505040012 72 221 2.0 5.0 0.00 0.00 0.00 86 1010.5
20260505035508 72 239 3.0 4.0 0.00 0.00 0.00 85 1010.5
20260505035005 72 244 3.0 6.0 0.00 0.00 0.00 86 1010.4
20260505034501 72 295 2.0 3.0 0.00 0.00 0.00 86 1010.4
20260505033958 72 154 2.0 5.0 0.00 0.00 0.00 86 1010.4
20260505033455 72 162 3.0 3.0 0.00 0.00 0.00 86 1010.4
20260505032954 72 326 1.0 5.0 0.00 0.00 0.00 86 1010.3
20260505032451 72 312 1.0 4.0 0.00 0.00 0.00 86 1010.3
20260505031947 72 287 2.0 6.0 0.00 0.00 0.00 85 1010.6
20260505031444 72 208 3.0 3.0 0.00 0.00 0.00 84 1010.5
20260505030941 72 101 0.0 5.0 0.00 0.00 0.00 84 1010.5
20260505030437 72 174 0.0 2.0 0.00 0.00 0.00 84 1010.8
20260505025932 73 1 0.0 2.0 0.00 0.00 0.00 84 1010.6
20260505025430 73 203 1.0 3.0 0.00 0.00 0.00 83 1010.8
20260505024928 73 102 0.0 2.0 0.00 0.00 0.00 82 1010.5
20260505024425 73 240 0.0 6.0 0.00 0.00 0.00 82 1010.3
20260505023922 73 178 0.0 2.0 0.00 0.00 0.00 81 1010.4
20260505023419 74 234 0.0 3.0 0.00 0.00 0.00 81 1010.6
20260505022917 74 31 1.0 3.0 0.00 0.00 0.00 80 1010.3
20260505022414 74 230 0.0 3.0 0.00 0.00 0.00 80 1010.4
20260505021911 74 37 0.0 5.0 0.00 0.00 0.00 79 1010.1
20260505021407 74 224 1.0 4.0 0.00 0.00 0.00 79 1010.0
20260505020903 74 222 2.0 4.0 0.00 0.00 0.00 79 1009.8
20260505020359 74 208 3.0 4.0 0.00 0.00 0.00 79 1009.8
20260505015856 75 17 1.0 2.0 0.00 0.00 0.00 78 1009.8
20260505015353 75 269 0.0 4.0 0.00 0.00 0.00 78 1009.7
20260505014850 75 216 0.0 3.0 0.00 0.00 0.00 78 1009.7
20260505014347 75 210 0.0 4.0 0.00 0.00 0.00 77 1009.8
20260505013844 75 217 3.0 3.0 0.00 0.00 0.00 76 1009.9
20260505013341 76 254 1.0 3.0 0.00 0.00 0.00 76 1009.8
20260505012839 76 229 2.0 4.0 0.00 0.00 0.00 75 1010.0
20260505012337 76 244 0.0 3.0 0.00 0.00 0.00 75 1009.7
20260505011833 76 209 2.0 5.0 0.00 0.00 0.00 74 1009.7
20260505011330 77 147 2.0 4.0 0.00 0.00 0.00 73 1009.7
20260505010826 77 9 1.0 4.0 0.00 0.00 0.00 73 1009.3
20260505010322 77 214 0.0 4.0 0.00 0.00 0.00 72 1009.7
20260505005818 77 168 3.0 6.0 0.00 0.00 0.00 71 1009.7
20260505005315 78 241 3.0 6.0 0.00 0.00 0.00 71 1009.6
20260505004813 78 61 2.0 7.0 0.00 0.00 0.00 70 1009.8
20260505004308 78 329 3.0 6.0 0.00 0.00 0.00 69 1009.6
20260505003806 79 311 2.0 7.0 0.00 0.00 0.00 68 1009.6
20260505003303 79 272 1.0 6.0 0.00 0.00 0.00 67 1009.8
20260505002759 80 321 3.0 5.0 0.00 0.00 0.00 66 1009.6
20260505002257 80 208 3.0 3.0 0.00 0.00 0.00 65 1009.6
20260505001755 80 256 6.0 6.0 0.00 0.00 0.00 65 1009.4
20260505001252 80 271 3.0 5.0 0.00 0.00 0.00 64 1009.3
20260505000749 81 245 2.0 5.0 0.00 0.00 0.00 63 1009.6
20260505000247 81 323 2.0 7.0 0.00 0.00 0.00 63 1009.7
20260504235743 82 149 3.0 5.0 0.00 0.00 0.00 62 1009.6
20260504235239 82 304 2.0 5.0 0.00 0.00 0.00 61 1009.7
20260504234736 82 256 4.0 6.0 0.00 0.00 0.00 62 1009.8
20260504234234 81 220 3.0 9.0 0.00 0.00 0.00 62 1010.1
20260504233730 82 224 4.0 6.0 0.00 0.00 0.00 60 1010.0
20260504233226 83 263 4.0 5.0 0.00 0.00 0.00 59 1010.4
20260504232723 83 277 2.0 6.0 0.00 0.00 0.00 60 1010.1
20260504232220 83 113 2.0 6.0 0.00 0.00 0.00 59 1010.1
20260504231716 83 341 2.0 4.0 0.00 0.00 0.00 59 1010.1
20260504231213 81 41 1.0 5.0 0.00 0.00 0.00 60 1010.4
20260504230709 81 316 3.0 4.0 0.00 0.00 0.00 61 1010.6
20260504230208 81 222 2.0 4.0 0.00 0.00 0.00 60 1010.6
20260504225706 81 260 2.0 5.0 0.00 0.00 0.00 60 1010.7
20260504225202 81 319 2.0 4.0 0.00 0.00 0.00 60 1010.9
20260504224659 82 136 2.0 5.0 0.00 0.00 0.00 59 1010.8
20260504224156 82 39 1.0 6.0 0.00 0.00 0.00 59 1010.5
20260504223653 83 319 2.0 5.0 0.00 0.00 0.00 58 1010.7
20260504223148 82 271 2.0 5.0 0.00 0.00 0.00 58 1010.7
20260504222646 83 178 2.0 5.0 0.00 0.00 0.00 57 1010.8
20260504222142 83 255 6.0 6.0 0.00 0.00 0.00 56 1010.9
20260504221640 82 324 3.0 5.0 0.00 0.00 0.00 59 1010.7
20260504221137 83 255 4.0 4.0 0.00 0.00 0.00 57 1010.7
20260504220633 83 24 3.0 8.0 0.00 0.00 0.00 58 1010.8
20260504220131 82 279 3.0 9.0 0.00 0.00 0.00 58 1010.8
20260504215627 82 308 3.0 8.0 0.00 0.00 0.00 59 1011.0
20260504215125 82 294 3.0 7.0 0.00 0.00 0.00 58 1010.9
20260504214620 83 277 2.0 6.0 0.00 0.00 0.00 58 1010.7
20260504214117 82 329 2.0 5.0 0.00 0.00 0.00 58 1011.0
20260504213613 82 5 5.0 7.0 0.00 0.00 0.00 58 1010.9
20260504213110 82 343 4.0 5.0 0.00 0.00 0.00 58 1011.0
20260504212606 82 243 3.0 7.0 0.00 0.00 0.00 58 1011.1
20260504212104 83 243 4.0 5.0 0.00 0.00 0.00 57 1011.1
20260504211601 83 286 3.0 6.0 0.00 0.00 0.00 57 1011.4
20260504211057 83 246 2.0 6.0 0.00 0.00 0.00 58 1011.2
20260504210555 83 222 2.0 6.0 0.00 0.00 0.00 58 1011.4
20260504210051 84 314 5.0 5.0 0.00 0.00 0.00 57 1011.6
20260504205549 83 57 2.0 8.0 0.00 0.00 0.00 57 1011.6
20260504205047 83 4 2.0 5.0 0.00 0.00 0.00 59 1011.5
20260504204544 83 243 4.0 7.0 0.00 0.00 0.00 57 1011.8
20260504204043 83 268 4.0 6.0 0.00 0.00 0.00 57 1012.0
20260504203541 83 322 3.0 12.0 0.00 0.00 0.00 57 1012.0
20260504203038 84 331 2.0 5.0 0.00 0.00 0.00 55 1012.0
20260504202533 85 31 2.0 3.0 0.00 0.00 0.00 55 1012.2
20260504202031 84 335 1.0 11.0 0.00 0.00 0.00 54 1012.1
20260504201527 84 253 2.0 7.0 0.00 0.00 0.00 55 1012.1
20260504201026 85 282 1.0 6.0 0.00 0.00 0.00 53 1012.0
20260504200521 84 214 2.0 6.0 0.00 0.00 0.00 55 1012.2
20260504200019 83 259 4.0 6.0 0.00 0.00 0.00 56 1012.6
20260504195514 84 332 2.0 6.0 0.00 0.00 0.00 55 1012.4
20260504195011 85 346 1.0 6.0 0.00 0.00 0.00 55 1012.3
20260504194508 84 302 3.0 6.0 0.00 0.00 0.00 56 1012.5
20260504194003 84 355 5.0 7.0 0.00 0.00 0.00 56 1012.5
20260504193500 84 233 8.0 8.0 0.00 0.00 0.00 55 1012.5
20260504192959 84 262 3.0 5.0 0.00 0.00 0.00 55 1012.8
20260504192456 82 240 2.0 5.0 0.00 0.00 0.00 58 1012.9
20260504191955 81 327 2.0 6.0 0.00 0.00 0.00 60 1012.8
20260504191452 82 57 2.0 5.0 0.00 0.00 0.00 60 1012.7
20260504190947 82 72 2.0 5.0 0.00 0.00 0.00 59 1012.8
20260504190443 82 247 1.0 5.0 0.00 0.00 0.00 58 1013.0
20260504185940 82 327 2.0 4.0 0.00 0.00 0.00 60 1012.9
20260504185438 82 297 3.0 6.0 0.00 0.00 0.00 60 1013.0
20260504184934 82 202 5.0 5.0 0.00 0.00 0.00 57 1013.3
20260504184429 82 239 4.0 9.0 0.00 0.00 0.00 58 1013.3
20260504183925 82 330 4.0 5.0 0.00 0.00 0.00 59 1013.5
20260504183423 81 235 3.0 5.0 0.00 0.00 0.00 60 1013.7
20260504182921 82 262 3.0 5.0 0.00 0.00 0.00 57 1013.6
20260504182417 81 329 1.0 6.0 0.00 0.00 0.00 61 1013.8
20260504181914 81 229 1.0 5.0 0.00 0.00 0.00 62 1013.6
20260504181412 80 258 3.0 4.0 0.00 0.00 0.00 62 1013.6
20260504180910 80 276 4.0 6.0 0.00 0.00 0.00 63 1013.6
20260504180409 80 241 3.0 9.0 0.00 0.00 0.00 61 1014.0
20260504175907 80 267 0.0 6.0 0.00 0.00 0.00 63 1014.0
20260504175403 80 287 2.0 4.0 0.00 0.00 0.00 65 1014.0
20260504174901 79 241 2.0 4.0 0.00 0.00 0.00 63 1014.0
20260504174358 80 205 3.0 10.0 0.00 0.00 0.00 61 1014.2
20260504173855 78 243 1.0 5.0 0.00 0.00 0.00 64 1014.4
20260504173352 77 234 2.0 5.0 0.00 0.00 0.00 66 1014.1
20260504172849 77 280 2.0 5.0 0.00 0.00 0.00 66 1014.3
20260504172346 78 235 2.0 6.0 0.00 0.00 0.00 65 1014.4
20260504171841 78 228 4.0 5.0 0.00 0.00 0.00 65 1014.6
20260504171339 78 335 3.0 5.0 0.00 0.00 0.00 65 1014.7
20260504170836 77 61 1.0 5.0 0.00 0.00 0.00 67 1014.9
20260504170332 78 13 2.0 5.0 0.00 0.00 0.00 66 1014.3
20260504160251 73 100 5.0 7.0 0.00 0.00 0.00 73 1015.3
20260504150716 71 200 2.0 5.0 0.00 0.00 0.00 74 1015.6
20260504150213 71 63 1.0 3.0 0.00 0.00 0.00 75 1015.5
20260504141142 67 57 1.0 5.0 0.00 0.00 0.00 78 1015.6
20260504140639 68 227 3.0 3.0 0.00 0.00 0.00 78 1015.7
20260504140134 67 53 2.0 4.0 0.00 0.00 0.00 78 1015.6
20260504130603 63 89 0.0 3.0 0.00 0.00 0.00 83 1015.6
20260504110451 60 89 0.0 1.0 0.00 0.00 0.00 89 1015.4
20260504100413 60 52 0.0 0.0 0.00 0.00 0.00 86 1015.6